Hoquiam, WA

11:57 AM PDT on June 22, 2017 (GMT -0700)
Bowerman

Weather History for KHQM - September, 2014

Change the Weather History Date:

Tuesday, September 23, 2014

  Actual Average Record
Temperature  
Mean Temperature 61 °F 58 °F  
Max Temperature 64 °F 66 °F 85 °F (1974)
Min Temperature 58 °F 50 °F 38 °F (2008)
Degree Days  
Heating Degree Days 4 7  
Month to date heating degree days 58 131  
Cooling Degree Days 0 0  
Month to date cooling degree days 18 0  
Year to date cooling degree days 48 16  
Growing Degree Days 12 (Base 50)    
Moisture  
Dew Point 60 °F    
Average Humidity 95    
Maximum Humidity 100    
Minimum Humidity 90    
Precipitation  
Precipitation 1.30 in 0.09 in 1.30 in (2014)
Month to date precipitation 1.87 1.61  
Year to date precipitation 45.52 39.22  
Sea Level Pressure  
Sea Level Pressure 29.78 in    
Wind  
Wind Speed 9 mph (ENE)    
Max Wind Speed 21 mph    
Max Gust Speed 28 mph    
Visibility 4 miles    
Events Rain , Thunderstorm    
T = Trace of Precipitation, MM = Missing Value Source: NWS Daily Summary

Daily Weather History Graph

Daily Weather History Graph

Search for Another Location

Airport or City:

Trip Planner

Search our weather history database for the weather conditions in past years. The results will help you decide how hot, cold, wet, or windy it might be!

Date:

Astronomy

Sep. 23, 2014 Rise Set
Actual Time 7:04 AM PDT 7:11 PM PDT
Civil Twilight 6:33 AM PDT 7:41 PM PDT
Nautical Twilight 5:57 AM PDT 8:17 PM PDT
Astronomical Twilight 5:21 AM PDT 8:53 PM PDT
Moon 6:33 AM PDT (9/23) 6:51 PM PDT (9/23)
Length of Visible Light 13h 07m
Length of Day
12h 07m
Waning Crescent, 0% of the Moon is Illuminated
Sep 23
Waning Crescent
Sep 23
New
Oct 1
First Quarter
Oct 8
Full
Oct 15
Last Quarter

Hourly Weather History & Observations

Time (PDT) Temp. Dew Point Humidity Pressure Visibility Wind Dir Wind Speed Gust Speed Precip Events Conditions
12:53 AM 59.0 °F 57.9 °F 96% 29.90 in 8.0 mi Calm Calm - N/A   Mostly Cloudy
1:53 AM 60.1 °F 57.9 °F 93% 29.91 in 9.0 mi Calm Calm - N/A   Overcast
2:53 AM 59.0 °F 57.9 °F 96% 29.89 in 5.0 mi ENE 4.6 mph - 0.02 in   Overcast
3:21 AM 59.0 °F 57.9 °F 96% 29.87 in 4.0 mi NE 5.8 mph - 0.00 in Rain , Thunderstorm Light Rain
3:30 AM 59.0 °F 57.9 °F 96% 29.87 in 3.0 mi ENE 5.8 mph - 0.01 in Rain Light Rain
3:53 AM 59.0 °F 57.9 °F 96% 29.86 in 3.0 mi NE 8.1 mph - 0.01 in Rain Light Rain
4:53 AM 59.0 °F 57.9 °F 96% 29.84 in 7.0 mi NE 5.8 mph - 0.02 in   Overcast
5:53 AM 59.0 °F 59.0 °F 100% 29.83 in 6.0 mi ENE 10.4 mph - 0.02 in Rain Light Rain
6:33 AM 60.1 °F 59.0 °F 96% 29.81 in 8.0 mi ENE 9.2 mph - 0.01 in   Overcast
6:53 AM 60.1 °F 59.0 °F 96% 29.83 in 6.0 mi East 9.2 mph - 0.01 in   Overcast
7:06 AM 59.0 °F 59.0 °F 100% 29.82 in 2.0 mi ENE 6.9 mph - 0.00 in Rain Rain
7:44 AM 59.0 °F 59.0 °F 100% 29.81 in 3.0 mi ENE 6.9 mph - N/A Rain Light Rain
7:53 AM 59.0 °F 59.0 °F 100% 29.83 in 5.0 mi ENE 8.1 mph - N/A Rain Light Rain
8:05 AM 59.0 °F 59.0 °F 100% 29.81 in 2.5 mi ENE 8.1 mph - 0.01 in Rain Light Rain
8:11 AM 59.0 °F 59.0 °F 100% 29.81 in 1.8 mi ENE 8.1 mph - 0.01 in Rain Rain
8:22 AM 60.1 °F 59.0 °F 96% 29.81 in 2.0 mi ENE 8.1 mph - 0.01 in Rain Light Rain
8:30 AM 60.1 °F 59.0 °F 96% 29.81 in 4.0 mi ENE 8.1 mph - 0.01 in Rain Light Rain
8:37 AM 60.1 °F 60.1 °F 100% 29.81 in 4.0 mi East 10.4 mph - 0.02 in Rain Light Rain
8:53 AM 60.1 °F 59.0 °F 96% 29.83 in 2.5 mi ENE 11.5 mph - 0.02 in Rain Light Rain
9:05 AM 60.1 °F 59.0 °F 96% 29.82 in 3.0 mi ENE 9.2 mph - 0.01 in Rain Light Rain
9:21 AM 60.1 °F 59.0 °F 96% 29.81 in 2.5 mi ENE 10.4 mph - 0.01 in Rain Light Rain
9:29 AM 60.1 °F 59.0 °F 96% 29.82 in 3.0 mi ENE 10.4 mph - 0.02 in Rain Light Rain
9:53 AM 60.1 °F 60.1 °F 100% 29.83 in 2.5 mi ENE 11.5 mph - 0.02 in   Overcast
10:09 AM 61.0 °F 60.1 °F 97% 29.82 in 4.0 mi ENE 10.4 mph - 0.01 in   Overcast
10:31 AM 61.0 °F 60.1 °F 97% 29.81 in 2.5 mi ENE 8.1 mph - 0.02 in   Overcast
10:38 AM 61.0 °F 60.1 °F 97% 29.81 in 3.0 mi ENE 9.2 mph - 0.02 in   Overcast
10:53 AM 61.0 °F 60.1 °F 97% 29.83 in 5.0 mi ENE 10.4 mph - 0.03 in   Overcast
11:53 AM 62.1 °F 61.0 °F 96% 29.83 in 5.0 mi ENE 5.8 mph - N/A   Overcast
12:07 PM 62.1 °F 61.0 °F 96% 29.81 in 5.0 mi ENE 9.2 mph - 0.00 in Rain Light Rain
12:16 PM 62.1 °F 61.0 °F 96% 29.80 in 6.0 mi ENE 9.2 mph - 0.00 in   Overcast
12:53 PM 62.6 °F 60.8 °F 94% 29.81 in 6.0 mi ENE 5.8 mph - N/A   Overcast
1:27 PM 64.0 °F 61.0 °F 90% 29.80 in 6.0 mi ENE 9.2 mph - 0.01 in   Overcast
1:49 PM 62.6 °F 60.8 °F 94% 29.80 in 6.0 mi East 8.1 mph - 0.01 in   Overcast
1:53 PM 63.0 °F 61.0 °F 93% 29.81 in 7.0 mi ENE 4.6 mph - 0.01 in   Overcast
2:49 PM 62.6 °F 60.8 °F 94% 29.81 in 6.0 mi SE 6.9 mph - 0.02 in   Overcast
2:53 PM 63.0 °F 62.1 °F 97% 29.82 in 5.0 mi ESE 6.9 mph - 0.02 in   Overcast
3:13 PM 64.0 °F 62.1 °F 93% 29.79 in 5.0 mi East 6.9 mph - N/A   Overcast
3:21 PM 64.0 °F 62.1 °F 93% 29.80 in 6.0 mi SE 8.1 mph - 0.01 in   Overcast
3:53 PM 64.0 °F 62.1 °F 93% 29.79 in 6.0 mi ENE 6.9 mph - 0.02 in   Overcast
4:53 PM 64.0 °F 59.0 °F 84% 29.78 in 6.0 mi ESE 6.9 mph - 0.01 in Rain Light Rain
5:53 PM 63.0 °F 59.0 °F 87% 29.77 in 5.0 mi East 9.2 mph - 0.01 in Rain Light Rain
6:53 PM 62.1 °F 59.0 °F 90% 29.73 in 6.0 mi ENE 9.2 mph - 0.01 in Rain Light Rain
7:16 PM 61.0 °F 59.0 °F 93% 29.70 in 5.0 mi ENE 8.1 mph - 0.01 in Rain Light Rain
7:53 PM 61.0 °F 60.1 °F 97% 29.71 in 2.5 mi ENE 9.2 mph - 0.02 in Rain Rain
8:02 PM 61.0 °F 61.0 °F 100% 29.69 in 1.8 mi ENE 9.2 mph - 0.00 in Rain Heavy Rain
8:15 PM 62.1 °F 61.0 °F 96% 29.69 in 2.0 mi ENE 10.4 mph - N/A Rain Rain
8:53 PM 62.1 °F 61.0 °F 96% 29.67 in 2.0 mi ENE 10.4 mph - N/A Rain Rain
9:26 PM 62.1 °F 61.0 °F 96% 29.65 in 4.0 mi NE 12.7 mph - 0.01 in Rain Rain
9:53 PM 62.1 °F 61.0 °F 96% 29.65 in 3.0 mi ENE 10.4 mph - 0.02 in Rain Rain
10:12 PM 62.1 °F 61.0 °F 96% 29.64 in 4.0 mi ENE 10.4 mph - 0.01 in Rain Light Rain
10:53 PM 62.1 °F 62.1 °F 100% 29.67 in 1.8 mi East 9.2 mph - 0.03 in Rain Heavy Rain
11:04 PM 62.1 °F 62.1 °F 100% 29.67 in 2.5 mi South 6.9 mph - 0.00 in Rain Light Rain
11:12 PM 63.0 °F 62.1 °F 97% 29.68 in 3.0 mi South 12.7 mph 19.6 mph N/A Rain Rain
11:19 PM 63.0 °F 61.0 °F 93% 29.67 in 2.5 mi SSE 15.0 mph 24.2 mph N/A Rain Rain
11:23 PM 63.0 °F 61.0 °F 93% 29.69 in 3.0 mi SSE 17.3 mph - N/A Rain Light Rain
11:28 PM 63.0 °F 61.0 °F 93% 29.69 in 5.0 mi South 20.7 mph 27.6 mph N/A Rain Light Rain
11:53 PM 62.1 °F 60.1 °F 93% 29.71 in 7.0 mi South 17.3 mph - N/A Rain Light Rain